Weather in Skala

Greece     37°42′28″N   23°21′44″E
temp.,
°C
wind,
m/s
gust,
m/s
humid.,
%
clouds,
%
prec.,
mm/h
press.,
hPa
HPBL,
m
13 may, thu
thu1300:00+19nw45710 0.0 100896
03:00+19wnw56705 0.0 1007143
06:00+18wnw45665 0.0 1007163
09:00+19nw45705 0.0 1009215
12:00+20nne33700 0.0 1009105
15:00+19ese54710 0.0 1009150
18:00+20n45660 0.0 1008135
21:00+19nw79680 0.0 1009178
14 may, fri
fri1400:00+18wnw68720 0.0 1010221
03:00+18wnw67680 0.0 1010256
06:00+18wnw55620 0.0 1011233
09:00+18nw56640 0.0 1013264
12:00+20nnw55640 0.0 1013180
15:00+21nnw355963 0.0 1013102
18:00+21nnw365823 0.0 101290
21:00+20wnw45640 0.0 101364
15 may, sat
sat1500:00+19nw22661 0.0 101325
03:00+19nnw22675 0.0 101244
06:00+18nw226443 0.0 101160
09:00+19n2261100 0.0 101257
12:00+19ene1159100 0.0 101281
15:00+19se3362100 0.0 101072
18:00+20nnw236363 0.1 100970
21:00+20wnw23610 0.1 100815
16 may, sun
sun1600:00+19nw56680 0.0 1009138
03:00+18nw68700 0.0 1008299
06:00+17wnw797460 0.0 1008362
09:00+18nw68684 0.0 1009477
12:00+20nnw56620 0.0 1009215
15:00+21nnw135921 0.0 100890
18:00+22nw4555100 0.0 100894
21:00+20nnw34676 0.0 100952
17 may, mon
mon1700:00+19n22744 0.0 101042
03:00+19wnw23700 0.0 101046
06:00+18nw34704 0.0 1011116
09:00+19nnw45690 0.0 1012125
12:00+21n23660 0.0 101286
15:00+21se55660 0.0 1012115
18:00+22e34690 0.0 101164
21:00+20n34750 0.0 101257